Time,TemperatureF,DewpointF,PressureIn,WindDirection,WindDirectionDegrees,WindSpeedMPH,WindSpeedGustMPH,Humidity,HourlyPrecipIn,Conditions,Clouds,dailyrainin,SoftwareType,DateUTC
2013-12-19 00:01:00,35.0,21.7,30.25,North,359,0.0,0.0,58,0.00,,---,0.00,VWS V14.01,2013-12-19 05:01:00,
2013-12-19 00:06:00,35.0,21.7,30.25,North,359,0.0,0.0,58,0.00,,---,0.00,VWS V14.01,2013-12-19 05:06:00,
2013-12-19 00:11:00,35.0,22.5,30.25,North,359,0.0,0.0,60,0.00,,---,0.00,VWS V14.01,2013-12-19 05:11:00,
2013-12-19 00:16:00,34.9,20.8,30.25,North,359,0.0,0.0,56,0.00,,---,0.00,VWS V14.01,2013-12-19 05:16:00,
2013-12-19 00:21:00,34.9,21.2,30.25,North,359,0.0,0.0,57,0.00,,---,0.00,VWS V14.01,2013-12-19 05:21:00,
2013-12-19 00:26:00,35.0,20.9,30.25,North,359,0.0,0.0,56,0.00,,---,0.00,VWS V14.01,2013-12-19 05:26:00,
2013-12-19 00:31:00,35.0,20.5,30.24,North,359,0.0,0.0,55,0.00,,---,0.00,VWS V14.01,2013-12-19 05:31:00,
2013-12-19 00:36:00,35.2,20.2,30.24,North,359,0.0,0.0,54,0.00,,---,0.00,VWS V14.01,2013-12-19 05:36:00,
2013-12-19 00:41:00,35.2,19.8,30.24,North,359,0.0,0.0,53,0.00,,---,0.00,VWS V14.01,2013-12-19 05:41:00,
2013-12-19 00:46:00,35.2,21.1,30.24,North,359,0.0,0.0,56,0.00,,---,0.00,VWS V14.01,2013-12-19 05:46:00,
2013-12-19 00:51:00,35.3,19.9,30.24,North,359,0.0,0.0,53,0.00,,---,0.00,VWS V14.01,2013-12-19 05:51:00,
2013-12-19 00:56:00,35.3,19.9,30.24,North,359,0.0,0.0,53,0.00,,---,0.00,VWS V14.01,2013-12-19 05:56:00,
2013-12-19 01:01:00,35.3,20.3,30.24,North,359,0.0,0.0,54,0.00,,---,0.00,VWS V14.01,2013-12-19 06:01:00,
2013-12-19 01:06:00,35.3,20.3,30.24,North,359,0.0,0.0,54,0.00,,---,0.00,VWS V14.01,2013-12-19 06:06:00,
2013-12-19 01:11:00,35.5,20.1,30.24,North,359,0.0,0.0,53,0.00,,---,0.00,VWS V14.01,2013-12-19 06:11:00,
2013-12-19 01:16:00,35.5,21.0,30.23,North,359,0.0,0.0,55,0.00,,---,0.00,VWS V14.01,2013-12-19 06:16:00,
2013-12-19 01:21:00,35.5,20.5,30.23,North,359,0.0,0.0,54,0.00,,---,0.00,VWS V14.01,2013-12-19 06:21:00,
2013-12-19 01:26:00,35.3,20.8,30.23,North,359,0.0,0.0,55,0.00,,---,0.00,VWS V14.01,2013-12-19 06:26:00,
2013-12-19 01:31:00,35.3,21.2,30.23,North,359,0.0,0.0,56,0.00,,---,0.00,VWS V14.01,2013-12-19 06:31:00,
2013-12-19 01:36:00,35.3,20.8,30.23,North,359,0.0,0.0,55,0.00,,---,0.00,VWS V14.01,2013-12-19 06:36:00,
2013-12-19 01:41:00,35.3,20.8,30.23,North,359,0.0,0.0,55,0.00,,---,0.00,VWS V14.01,2013-12-19 06:41:00,
2013-12-19 01:46:00,35.2,21.1,30.23,North,359,0.0,0.0,56,0.00,,---,0.00,VWS V14.01,2013-12-19 06:46:00,
2013-12-19 01:51:00,35.2,20.2,30.23,North,359,0.0,0.0,54,0.00,,---,0.00,VWS V14.01,2013-12-19 06:51:00,
2013-12-19 01:56:00,35.0,20.0,30.23,North,359,0.0,0.0,54,0.00,,---,0.00,VWS V14.01,2013-12-19 06:56:00,
2013-12-19 02:01:00,35.0,20.9,30.23,North,359,0.0,0.0,56,0.00,,---,0.00,VWS V14.01,2013-12-19 07:01:00,
2013-12-19 02:06:00,34.9,21.2,30.23,North,359,0.0,0.0,57,0.00,,---,0.00,VWS V14.01,2013-12-19 07:06:00,
2013-12-19 02:11:00,34.9,21.2,30.23,North,359,0.0,0.0,57,0.00,,---,0.00,VWS V14.01,2013-12-19 07:11:00,
2013-12-19 02:16:00,34.7,20.2,30.23,North,359,0.0,0.0,55,0.00,,---,0.00,VWS V14.01,2013-12-19 07:16:00,
2013-12-19 02:21:00,34.7,21.5,30.23,North,359,0.0,0.0,58,0.00,,---,0.00,VWS V14.01,2013-12-19 07:21:00,
2013-12-19 02:26:00,34.6,21.4,30.23,North,359,0.0,0.0,58,0.00,,---,0.00,VWS V14.01,2013-12-19 07:26:00,
2013-12-19 02:31:00,34.4,21.2,30.24,North,359,0.0,0.0,58,0.00,,---,0.00,VWS V14.01,2013-12-19 07:31:00,
2013-12-19 02:36:00,34.4,22.0,30.24,North,359,0.0,0.0,60,0.00,,---,0.00,VWS V14.01,2013-12-19 07:36:00,
2013-12-19 02:41:00,34.3,21.5,30.24,North,359,0.0,0.0,59,0.00,,---,0.00,VWS V14.01,2013-12-19 07:41:00,
2013-12-19 02:46:00,34.1,21.3,30.25,North,359,0.0,0.0,59,0.00,,---,0.00,VWS V14.01,2013-12-19 07:46:00,
2013-12-19 02:51:00,34.1,20.9,30.25,North,359,0.0,0.0,58,0.00,,---,0.00,VWS V14.01,2013-12-19 07:51:00,
2013-12-19 02:56:00,34.1,21.7,30.25,North,359,0.0,0.0,60,0.00,,---,0.00,VWS V14.01,2013-12-19 07:56:00,
2013-12-19 03:01:00,34.0,22.0,30.25,North,359,0.0,0.0,61,0.00,,---,0.00,VWS V14.01,2013-12-19 08:01:00,
2013-12-19 03:06:00,34.0,22.0,30.25,North,359,0.0,0.0,61,0.00,,---,0.00,VWS V14.01,2013-12-19 08:06:00,
2013-12-19 03:11:00,34.0,21.2,30.25,North,359,0.0,0.0,59,0.00,,---,0.00,VWS V14.01,2013-12-19 08:11:00,
2013-12-19 03:16:00,34.0,21.2,30.25,North,359,0.0,0.0,59,0.00,,---,0.00,VWS V14.01,2013-12-19 08:16:00,
2013-12-19 03:21:00,34.1,20.9,30.25,North,359,0.0,0.0,58,0.00,,---,0.00,VWS V14.01,2013-12-19 08:21:00,
2013-12-19 03:26:00,34.1,21.7,30.25,North,359,0.0,0.0,60,0.00,,---,0.00,VWS V14.01,2013-12-19 08:26:00,
2013-12-19 03:31:00,34.1,20.5,30.25,North,359,0.0,0.0,57,0.00,,---,0.00,VWS V14.01,2013-12-19 08:31:00,
2013-12-19 03:36:00,34.1,20.9,30.25,North,359,0.0,0.0,58,0.00,,---,0.00,VWS V14.01,2013-12-19 08:36:00,
2013-12-19 03:41:00,34.3,20.7,30.25,North,359,0.0,0.0,57,0.00,,---,0.00,VWS V14.01,2013-12-19 08:41:00,
2013-12-19 03:46:00,34.4,20.3,30.25,North,359,0.0,0.0,56,0.00,,---,0.00,VWS V14.01,2013-12-19 08:46:00,
2013-12-19 03:51:00,34.4,20.8,30.25,North,359,0.0,0.0,57,0.00,,---,0.00,VWS V14.01,2013-12-19 08:51:00,
2013-12-19 03:56:00,34.6,20.5,30.25,North,359,0.0,0.0,56,0.00,,---,0.00,VWS V14.01,2013-12-19 08:56:00,
2013-12-19 04:01:00,34.6,20.5,30.25,North,359,0.0,0.0,56,0.00,,---,0.00,VWS V14.01,2013-12-19 09:01:00,
2013-12-19 04:06:00,34.7,21.0,30.25,North,359,0.0,0.0,57,0.00,,---,0.00,VWS V14.01,2013-12-19 09:06:00,
2013-12-19 04:11:00,34.7,20.6,30.25,North,359,0.0,0.0,56,0.00,,---,0.00,VWS V14.01,2013-12-19 09:11:00,
2013-12-19 04:16:00,34.7,21.0,30.24,North,359,0.0,0.0,57,0.00,,---,0.00,VWS V14.01,2013-12-19 09:16:00,
2013-12-19 04:21:00,34.7,20.6,30.24,North,359,0.0,0.0,56,0.00,,---,0.00,VWS V14.01,2013-12-19 09:21:00,
2013-12-19 04:26:00,34.7,21.0,30.24,North,359,0.0,0.0,57,0.00,,---,0.00,VWS V14.01,2013-12-19 09:26:00,
2013-12-19 04:31:00,34.7,21.0,30.25,North,359,0.0,0.0,57,0.00,,---,0.00,VWS V14.01,2013-12-19 09:31:00,
2013-12-19 04:36:00,34.7,20.6,30.25,North,359,0.0,0.0,56,0.00,,---,0.00,VWS V14.01,2013-12-19 09:36:00,
2013-12-19 04:41:00,34.6,20.5,30.25,North,359,0.0,0.0,56,0.00,,---,0.00,VWS V14.01,2013-12-19 09:41:00,
2013-12-19 04:46:00,34.6,21.0,30.25,North,359,0.0,0.0,57,0.00,,---,0.00,VWS V14.01,2013-12-19 09:46:00,
2013-12-19 04:51:00,34.6,20.5,30.25,North,359,0.0,0.0,56,0.00,,---,0.00,VWS V14.01,2013-12-19 09:51:00,
2013-12-19 04:56:00,34.4,20.8,30.25,North,359,0.0,0.0,57,0.00,,---,0.00,VWS V14.01,2013-12-19 09:56:00,
2013-12-19 05:01:00,34.4,21.6,30.25,North,359,0.0,0.0,59,0.00,,---,0.00,VWS V14.01,2013-12-19 10:01:00,
2013-12-19 05:06:00,34.4,21.6,30.25,North,359,0.0,0.0,59,0.00,,---,0.00,VWS V14.01,2013-12-19 10:06:00,
2013-12-19 05:11:00,34.4,22.0,30.25,North,359,0.0,0.0,60,0.00,,---,0.00,VWS V14.01,2013-12-19 10:11:00,
2013-12-19 05:16:00,34.4,21.6,30.25,North,359,0.0,0.0,59,0.00,,---,0.00,VWS V14.01,2013-12-19 10:16:00,
2013-12-19 05:21:00,34.4,22.0,30.25,North,359,0.0,0.0,60,0.00,,---,0.00,VWS V14.01,2013-12-19 10:21:00,
2013-12-19 05:26:00,34.4,21.6,30.25,North,359,0.0,0.0,59,0.00,,---,0.00,VWS V14.01,2013-12-19 10:26:00,
2013-12-19 05:31:00,34.4,21.2,30.25,NNE,13,0.0,0.0,58,0.00,,---,0.00,VWS V14.01,2013-12-19 10:31:00,
2013-12-19 05:36:00,34.6,21.8,30.25,NNE,13,0.0,0.0,59,0.00,,---,0.00,VWS V14.01,2013-12-19 10:36:00,
2013-12-19 05:41:00,34.7,21.9,30.25,East,93,0.0,0.0,59,0.00,,---,0.00,VWS V14.01,2013-12-19 10:41:00,
2013-12-19 05:46:00,34.9,21.6,30.25,SE,124,0.0,0.0,58,0.00,,---,0.00,VWS V14.01,2013-12-19 10:46:00,
2013-12-19 05:51:00,34.9,22.0,30.25,SE,124,0.0,0.0,59,0.00,,---,0.00,VWS V14.01,2013-12-19 10:51:00,
2013-12-19 05:56:00,34.9,21.6,30.25,South,185,0.0,0.0,58,0.00,,---,0.00,VWS V14.01,2013-12-19 10:56:00,
2013-12-19 06:01:00,34.9,21.6,30.26,South,179,0.0,0.0,58,0.00,,---,0.00,VWS V14.01,2013-12-19 11:01:00,
2013-12-19 06:06:00,34.7,21.9,30.26,South,179,0.0,0.0,59,0.00,,---,0.00,VWS V14.01,2013-12-19 11:06:00,
2013-12-19 06:11:00,34.7,21.5,30.26,South,179,0.0,0.0,58,0.00,,---,0.00,VWS V14.01,2013-12-19 11:11:00,
2013-12-19 06:16:00,34.7,21.5,30.26,South,179,0.0,0.0,58,0.00,,---,0.00,VWS V14.01,2013-12-19 11:16:00,
2013-12-19 06:21:00,34.6,22.5,30.26,South,179,0.0,0.0,61,0.00,,---,0.00,VWS V14.01,2013-12-19 11:21:00,
2013-12-19 06:26:00,34.6,22.2,30.26,South,179,0.0,0.0,60,0.00,,---,0.00,VWS V14.01,2013-12-19 11:26:00,
2013-12-19 06:31:00,34.4,21.6,30.26,SSE,161,0.0,0.0,59,0.00,,---,0.00,VWS V14.01,2013-12-19 11:31:00,
2013-12-19 06:36:00,34.4,21.6,30.26,SSE,161,0.0,0.0,59,0.00,,---,0.00,VWS V14.01,2013-12-19 11:36:00,
2013-12-19 06:41:00,34.3,22.3,30.26,SSE,161,0.0,0.0,61,0.00,,---,0.00,VWS V14.01,2013-12-19 11:41:00,
2013-12-19 06:46:00,34.1,21.7,30.26,SSE,161,0.0,0.0,60,0.00,,---,0.00,VWS V14.01,2013-12-19 11:46:00,
2013-12-19 06:51:00,34.1,22.8,30.26,SSE,161,0.0,0.0,63,0.00,,---,0.00,VWS V14.01,2013-12-19 11:51:00,
2013-12-19 06:56:00,34.3,21.5,30.26,SSE,165,0.0,0.0,59,0.00,,---,0.00,VWS V14.01,2013-12-19 11:56:00,
2013-12-19 07:01:00,34.7,21.0,30.26,SE,143,0.0,0.0,57,0.00,,---,0.00,VWS V14.01,2013-12-19 12:01:00,
2013-12-19 07:06:00,35.0,20.9,30.26,SSE,155,0.0,0.0,56,0.00,,---,0.00,VWS V14.01,2013-12-19 12:06:00,
2013-12-19 07:11:00,35.2,21.9,30.26,SSE,155,0.0,0.0,58,0.00,,---,0.00,VWS V14.01,2013-12-19 12:11:00,
2013-12-19 07:16:00,35.3,21.2,30.26,SSE,155,0.0,0.0,56,0.00,,---,0.00,VWS V14.01,2013-12-19 12:16:00,
2013-12-19 07:21:00,35.3,20.3,30.26,SSE,155,0.0,0.0,54,0.00,,---,0.00,VWS V14.01,2013-12-19 12:21:00,
2013-12-19 07:26:00,35.3,20.8,30.26,SSE,155,0.0,0.0,55,0.00,,---,0.00,VWS V14.01,2013-12-19 12:26:00,
2013-12-19 07:31:00,35.5,21.4,30.26,South,169,0.0,0.0,56,0.00,,---,0.00,VWS V14.01,2013-12-19 12:31:00,
2013-12-19 07:36:00,35.5,21.0,30.26,South,169,0.0,0.0,55,0.00,,---,0.00,VWS V14.01,2013-12-19 12:36:00,
2013-12-19 07:41:00,35.6,21.5,30.26,SSE,165,0.0,0.0,56,0.00,,---,0.00,VWS V14.01,2013-12-19 12:41:00,
2013-12-19 07:46:00,35.6,20.6,30.26,SW,230,0.0,2.0,54,0.00,,---,0.00,VWS V14.01,2013-12-19 12:46:00,
2013-12-19 07:51:00,35.6,21.0,30.26,SW,229,0.0,0.0,55,0.00,,---,0.00,VWS V14.01,2013-12-19 12:51:00,
2013-12-19 07:56:00,35.9,20.5,30.26,SSW,192,0.0,0.0,53,0.00,,---,0.00,VWS V14.01,2013-12-19 12:56:00,
2013-12-19 08:01:00,35.9,20.9,30.26,SSW,192,0.0,0.0,54,0.00,,---,0.00,VWS V14.01,2013-12-19 13:01:00,
2013-12-19 08:06:00,36.0,21.0,30.26,SSW,192,0.0,0.0,54,0.00,,---,0.00,VWS V14.01,2013-12-19 13:06:00,
2013-12-19 08:10:00,36.3,20.8,30.26,SSW,192,0.0,0.0,53,0.00,,---,0.00,VWS V14.01,2013-12-19 13:10:00,
2013-12-19 08:15:00,36.8,21.3,30.26,SSW,192,0.0,0.0,53,0.00,,---,0.00,VWS V14.01,2013-12-19 13:15:00,
2013-12-19 08:20:00,37.2,21.7,30.26,SSW,195,0.0,0.0,53,0.00,,---,0.00,VWS V14.01,2013-12-19 13:20:00,
2013-12-19 08:25:00,37.6,21.6,30.26,SSW,200,0.0,0.0,52,0.00,,---,0.00,VWS V14.01,2013-12-19 13:25:00,
2013-12-19 08:30:00,37.9,23.2,30.27,SSW,195,0.0,0.0,55,0.00,,---,0.00,VWS V14.01,2013-12-19 13:30:00,
2013-12-19 08:35:00,38.2,22.6,30.27,South,189,0.0,0.0,53,0.00,,---,0.00,VWS V14.01,2013-12-19 13:35:00,
2013-12-19 08:40:00,38.5,22.4,30.27,South,189,0.0,0.0,52,0.00,,---,0.00,VWS V14.01,2013-12-19 13:40:00,
2013-12-19 08:45:00,38.9,23.2,30.27,ESE,102,0.0,0.0,53,0.00,,---,0.00,VWS V14.01,2013-12-19 13:45:00,
2013-12-19 08:50:00,39.5,22.9,30.27,SSE,161,0.0,0.0,51,0.00,,---,0.00,VWS V14.01,2013-12-19 13:50:00,
2013-12-19 08:55:00,40.2,23.5,30.27,South,186,0.0,0.0,51,0.00,,---,0.00,VWS V14.01,2013-12-19 13:55:00,
2013-12-19 09:00:00,41.5,23.3,30.27,SE,141,0.0,0.0,48,0.00,,---,0.00,VWS V14.01,2013-12-19 14:00:00,
2013-12-19 09:05:00,42.9,23.6,30.27,NNE,20,0.0,0.0,46,0.00,,---,0.00,VWS V14.01,2013-12-19 14:05:00,
2013-12-19 09:10:00,44.1,23.0,30.27,South,179,0.0,1.0,43,0.00,,---,0.00,VWS V14.01,2013-12-19 14:10:00,
2013-12-19 09:15:00,44.8,24.2,30.28,SE,141,0.0,0.0,44,0.00,,---,0.00,VWS V14.01,2013-12-19 14:15:00,
2013-12-19 09:20:00,45.7,25.0,30.28,SSE,154,0.0,0.0,44,0.00,,---,0.00,VWS V14.01,2013-12-19 14:20:00,
2013-12-19 09:25:00,46.2,25.0,30.28,SSW,205,0.0,1.0,43,0.00,,---,0.00,VWS V14.01,2013-12-19 14:25:00,
2013-12-19 09:30:00,47.0,25.7,30.28,North,11,0.0,0.0,43,0.00,,---,0.00,VWS V14.01,2013-12-19 14:30:00,
2013-12-19 09:35:00,47.4,25.5,30.28,ESE,109,0.0,0.0,42,0.00,,---,0.00,VWS V14.01,2013-12-19 14:35:00,
2013-12-19 09:40:00,47.7,24.0,30.28,South,184,0.0,0.0,39,0.00,,---,0.00,VWS V14.01,2013-12-19 14:40:00,
2013-12-19 09:45:00,48.2,23.8,30.28,SSW,198,0.0,0.0,38,0.00,,---,0.00,VWS V14.01,2013-12-19 14:45:00,
2013-12-19 09:50:00,48.2,23.8,30.28,SSW,195,0.0,0.0,38,0.00,,---,0.00,VWS V14.01,2013-12-19 14:50:00,
2013-12-19 09:55:00,48.8,24.3,30.28,SW,215,0.0,0.0,38,0.00,,---,0.00,VWS V14.01,2013-12-19 14:55:00,
2013-12-19 10:00:00,49.4,24.9,30.28,South,191,0.0,0.0,38,0.00,,---,0.00,VWS V14.01,2013-12-19 15:00:00,
2013-12-19 10:05:00,49.9,25.3,30.28,ESE,121,2.0,2.0,38,0.00,,---,0.00,VWS V14.01,2013-12-19 15:05:00,
2013-12-19 10:10:00,50.5,24.6,30.28,SSE,151,0.0,0.0,36,0.00,,---,0.00,VWS V14.01,2013-12-19 15:10:00,
2013-12-19 10:15:00,51.4,25.4,30.28,SSE,150,0.0,0.0,36,0.00,,---,0.00,VWS V14.01,2013-12-19 15:15:00,
2013-12-19 10:20:00,51.9,23.7,30.28,SW,215,0.0,0.0,33,0.00,,---,0.00,VWS V14.01,2013-12-19 15:20:00,
2013-12-19 10:25:00,52.3,24.1,30.28,SSW,213,0.0,2.0,33,0.00,,---,0.00,VWS V14.01,2013-12-19 15:25:00,
2013-12-19 10:30:00,52.3,23.3,30.28,SSW,212,2.0,2.0,32,0.00,,---,0.00,VWS V14.01,2013-12-19 15:30:00,
2013-12-19 10:35:00,52.3,23.3,30.28,WNW,301,0.0,6.0,32,0.00,,---,0.00,VWS V14.01,2013-12-19 15:35:00,
2013-12-19 10:40:00,52.3,23.3,30.28,South,179,0.0,0.0,32,0.00,,---,0.00,VWS V14.01,2013-12-19 15:40:00,
2013-12-19 10:45:00,52.8,22.2,30.27,ESE,103,0.0,0.0,30,0.00,,---,0.00,VWS V14.01,2013-12-19 15:45:00,
2013-12-19 10:50:00,53.2,22.6,30.27,SSW,198,0.0,0.0,30,0.00,,---,0.00,VWS V14.01,2013-12-19 15:50:00,
2013-12-19 10:55:00,53.5,22.9,30.27,SSE,154,0.0,0.0,30,0.00,,---,0.00,VWS V14.01,2013-12-19 15:55:00,
2013-12-19 11:00:00,53.6,22.9,30.27,SSW,193,0.0,0.0,30,0.00,,---,0.00,VWS V14.01,2013-12-19 16:00:00,
2013-12-19 11:05:00,54.1,22.6,30.27,North,0,0.0,0.0,29,0.00,,---,0.00,VWS V14.01,2013-12-19 16:05:00,
2013-12-19 11:10:00,54.1,22.6,30.27,WSW,248,0.0,0.0,29,0.00,,---,0.00,VWS V14.01,2013-12-19 16:10:00,
2013-12-19 11:15:00,54.4,22.0,30.26,SSW,192,0.0,0.0,28,0.00,,---,0.00,VWS V14.01,2013-12-19 16:15:00,
2013-12-19 11:20:00,54.4,21.1,30.26,SSE,167,0.0,0.0,27,0.00,,---,0.00,VWS V14.01,2013-12-19 16:20:00,
2013-12-19 11:25:00,54.8,21.5,30.26,NNE,32,0.0,0.0,27,0.00,,---,0.00,VWS V14.01,2013-12-19 16:25:00,
2013-12-19 11:30:00,55.4,22.0,30.26,ENE,68,0.0,0.0,27,0.00,,---,0.00,VWS V14.01,2013-12-19 16:30:00,
2013-12-19 11:35:00,55.7,21.4,30.26,SE,144,2.0,4.0,26,0.00,,---,0.00,VWS V14.01,2013-12-19 16:35:00,
2013-12-19 11:40:00,55.9,21.5,30.26,SE,134,0.0,0.0,26,0.00,,---,0.00,VWS V14.01,2013-12-19 16:40:00,
2013-12-19 11:45:00,56.2,20.9,30.25,South,181,0.0,1.0,25,0.00,,---,0.00,VWS V14.01,2013-12-19 16:45:00,
2013-12-19 11:50:00,56.5,21.1,30.25,NE,38,0.0,0.0,25,0.00,,---,0.00,VWS V14.01,2013-12-19 16:50:00,
2013-12-19 11:55:00,56.6,23.0,30.25,South,189,0.0,2.0,27,0.00,,---,0.00,VWS V14.01,2013-12-19 16:55:00,
2013-12-19 12:00:00,57.0,23.4,30.25,ESE,104,0.0,0.0,27,0.00,,---,0.00,VWS V14.01,2013-12-19 17:00:00,
2013-12-19 12:05:00,57.8,24.1,30.25,ESE,102,0.0,0.0,27,0.00,,---,0.00,VWS V14.01,2013-12-19 17:05:00,
2013-12-19 12:10:00,58.3,22.6,30.25,East,82,0.0,3.0,25,0.00,,---,0.00,VWS V14.01,2013-12-19 17:10:00,
2013-12-19 12:15:00,58.3,20.7,30.24,West,271,0.0,2.0,23,0.00,,---,0.00,VWS V14.01,2013-12-19 17:15:00,
2013-12-19 12:20:00,58.1,21.5,30.24,SSW,205,1.0,1.0,24,0.00,,---,0.00,VWS V14.01,2013-12-19 17:20:00,
2013-12-19 12:25:00,58.0,21.4,30.24,SW,220,0.0,0.0,24,0.00,,---,0.00,VWS V14.01,2013-12-19 17:25:00,
2013-12-19 12:30:00,57.8,23.2,30.23,SE,128,0.0,0.0,26,0.00,,---,0.00,VWS V14.01,2013-12-19 17:30:00,
2013-12-19 12:35:00,58.9,24.1,30.23,North,0,0.0,0.0,26,0.00,,---,0.00,VWS V14.01,2013-12-19 17:35:00,
2013-12-19 12:40:00,59.2,24.4,30.23,SE,128,0.0,0.0,26,0.00,,---,0.00,VWS V14.01,2013-12-19 17:40:00,
2013-12-19 12:45:00,59.2,22.5,30.22,South,172,0.0,0.0,24,0.00,,---,0.00,VWS V14.01,2013-12-19 17:45:00,
2013-12-19 12:50:00,59.3,23.5,30.22,SSE,160,0.0,0.0,25,0.00,,---,0.00,VWS V14.01,2013-12-19 17:50:00,
2013-12-19 12:55:00,59.9,25.0,30.22,ESE,112,0.0,0.0,26,0.00,,---,0.00,VWS V14.01,2013-12-19 17:55:00,
2013-12-19 13:00:00,60.2,23.3,30.21,ESE,119,0.0,0.0,24,0.00,,---,0.00,VWS V14.01,2013-12-19 18:00:00,
2013-12-19 13:05:00,60.5,23.5,30.21,SE,141,0.0,1.0,24,0.00,,---,0.00,VWS V14.01,2013-12-19 18:05:00,
2013-12-19 13:10:00,61.0,23.0,30.21,South,191,0.0,5.0,23,0.00,,---,0.00,VWS V14.01,2013-12-19 18:10:00,
2013-12-19 13:15:00,61.0,23.0,30.20,ESE,112,0.0,0.0,23,0.00,,---,0.00,VWS V14.01,2013-12-19 18:15:00,
2013-12-19 13:20:00,61.2,25.1,30.20,ESE,116,0.0,0.0,25,0.00,,---,0.00,VWS V14.01,2013-12-19 18:20:00,
2013-12-19 13:25:00,61.2,24.1,30.20,SSE,168,0.0,3.0,24,0.00,,---,0.00,VWS V14.01,2013-12-19 18:25:00,
2013-12-19 13:30:00,61.5,23.4,30.20,SE,124,0.0,2.0,23,0.00,,---,0.00,VWS V14.01,2013-12-19 18:30:00,
2013-12-19 13:35:00,61.2,25.1,30.20,SE,127,0.0,1.0,25,0.00,,---,0.00,VWS V14.01,2013-12-19 18:35:00,
2013-12-19 13:40:00,61.0,25.0,30.20,SE,127,0.0,0.0,25,0.00,,---,0.00,VWS V14.01,2013-12-19 18:40:00,
2013-12-19 13:45:00,60.2,23.3,30.20,ENE,64,1.0,4.0,24,0.00,,---,0.00,VWS V14.01,2013-12-19 18:45:00,
2013-12-19 13:50:00,59.8,24.9,30.20,South,188,0.0,5.0,26,0.00,,---,0.00,VWS V14.01,2013-12-19 18:50:00,
2013-12-19 13:55:00,59.6,23.8,30.20,NE,40,0.0,7.0,25,0.00,,---,0.00,VWS V14.01,2013-12-19 18:55:00,
2013-12-19 14:00:00,59.9,25.9,30.19,North,1,0.0,0.0,27,0.00,,---,0.00,VWS V14.01,2013-12-19 19:00:00,
2013-12-19 14:05:00,60.2,25.2,30.19,SE,126,3.0,3.0,26,0.00,,---,0.00,VWS V14.01,2013-12-19 19:05:00,
2013-12-19 14:10:00,60.5,26.4,30.19,SSE,161,0.0,0.0,27,0.00,,---,0.00,VWS V14.01,2013-12-19 19:10:00,
2013-12-19 14:15:00,61.0,25.0,30.19,SSW,208,0.0,6.0,25,0.00,,---,0.00,VWS V14.01,2013-12-19 19:15:00,
2013-12-19 14:20:00,61.3,25.2,30.19,SSW,199,0.0,6.0,25,0.00,,---,0.00,VWS V14.01,2013-12-19 19:20:00,
2013-12-19 14:25:00,61.8,26.6,30.19,SSE,155,0.0,2.0,26,0.00,,---,0.00,VWS V14.01,2013-12-19 19:25:00,
2013-12-19 14:30:00,62.1,26.8,30.18,SSE,160,0.0,1.0,26,0.00,,---,0.00,VWS V14.01,2013-12-19 19:30:00,
2013-12-19 14:35:00,62.1,23.9,30.18,ESE,121,0.0,3.0,23,0.00,,---,0.00,VWS V14.01,2013-12-19 19:35:00,
2013-12-19 14:40:00,61.8,24.6,30.18,South,178,0.0,5.0,24,0.00,,---,0.00,VWS V14.01,2013-12-19 19:40:00,
2013-12-19 14:45:00,61.5,23.4,30.18,WSW,237,0.0,0.0,23,0.00,,---,0.00,VWS V14.01,2013-12-19 19:45:00,
2013-12-19 14:50:00,61.3,24.2,30.18,SSW,212,0.0,6.0,24,0.00,,---,0.00,VWS V14.01,2013-12-19 19:50:00,
2013-12-19 14:55:00,61.0,23.0,30.18,ESE,123,0.0,3.0,23,0.00,,---,0.00,VWS V14.01,2013-12-19 19:55:00,
2013-12-19 15:00:00,60.9,22.9,30.18,SE,126,0.0,5.0,23,0.00,,---,0.00,VWS V14.01,2013-12-19 20:00:00,
2013-12-19 15:05:00,60.9,22.9,30.18,SSW,206,0.0,1.0,23,0.00,,---,0.00,VWS V14.01,2013-12-19 20:05:00,
2013-12-19 15:10:00,60.9,23.9,30.18,East,92,0.0,3.0,24,0.00,,---,0.00,VWS V14.01,2013-12-19 20:10:00,
2013-12-19 15:15:00,60.7,22.7,30.18,SSW,202,0.0,0.0,23,0.00,,---,0.00,VWS V14.01,2013-12-19 20:15:00,
2013-12-19 15:20:00,60.4,22.5,30.18,SSW,200,0.0,1.0,23,0.00,,---,0.00,VWS V14.01,2013-12-19 20:20:00,
2013-12-19 15:25:00,60.2,22.3,30.18,SSE,152,2.0,2.0,23,0.00,,---,0.00,VWS V14.01,2013-12-19 20:25:00,
2013-12-19 15:30:00,60.2,22.3,30.18,SSW,203,2.0,2.0,23,0.00,,---,0.00,VWS V14.01,2013-12-19 20:30:00,
2013-12-19 15:35:00,59.9,22.0,30.18,SSW,210,0.0,0.0,23,0.00,,---,0.00,VWS V14.01,2013-12-19 20:35:00,
2013-12-19 15:40:00,59.9,22.0,30.18,SSE,160,0.0,0.0,23,0.00,,---,0.00,VWS V14.01,2013-12-19 20:40:00,
2013-12-19 15:45:00,59.6,21.8,30.18,SSW,213,0.0,0.0,23,0.00,,---,0.00,VWS V14.01,2013-12-19 20:45:00,
2013-12-19 15:50:00,59.6,21.8,30.18,South,179,0.0,0.0,23,0.00,,---,0.00,VWS V14.01,2013-12-19 20:50:00,
2013-12-19 15:54:00,59.6,21.8,30.18,South,169,0.0,0.0,23,0.00,,---,0.00,VWS V14.01,2013-12-19 20:54:00,
2013-12-19 15:59:00,59.6,21.8,30.18,South,169,0.0,0.0,23,0.00,,---,0.00,VWS V14.01,2013-12-19 20:59:00,
2013-12-19 16:04:00,58.4,22.7,30.18,SSW,195,0.0,0.0,25,0.00,,---,0.00,VWS V14.01,2013-12-19 21:04:00,
2013-12-19 16:09:00,58.3,21.7,30.18,SSW,200,0.0,0.0,24,0.00,,---,0.00,VWS V14.01,2013-12-19 21:09:00,
2013-12-19 16:14:00,58.1,22.5,30.19,SSW,198,0.0,0.0,25,0.00,,---,0.00,VWS V14.01,2013-12-19 21:14:00,
2013-12-19 16:19:00,57.8,22.2,30.19,SE,140,0.0,2.0,25,0.00,,---,0.00,VWS V14.01,2013-12-19 21:19:00,
2013-12-19 16:24:00,57.3,24.5,30.19,SW,226,0.0,0.0,28,0.00,,---,0.00,VWS V14.01,2013-12-19 21:24:00,
2013-12-19 16:29:00,57.0,23.4,30.19,SSW,210,0.0,0.0,27,0.00,,---,0.00,VWS V14.01,2013-12-19 21:29:00,
2013-12-19 16:34:00,56.6,23.9,30.19,SSW,210,0.0,0.0,28,0.00,,---,0.00,VWS V14.01,2013-12-19 21:34:00,
2013-12-19 16:39:00,56.2,23.5,30.19,SSW,210,0.0,0.0,28,0.00,,---,0.00,VWS V14.01,2013-12-19 21:39:00,
2013-12-19 16:44:00,55.7,24.8,30.19,SSW,210,0.0,0.0,30,0.00,,---,0.00,VWS V14.01,2013-12-19 21:44:00,
2013-12-19 16:49:00,55.4,23.7,30.19,SSW,210,0.0,0.0,29,0.00,,---,0.00,VWS V14.01,2013-12-19 21:49:00,
2013-12-19 16:54:00,55.4,23.7,30.19,SSW,210,0.0,0.0,29,0.00,,---,0.00,VWS V14.01,2013-12-19 21:54:00,
2013-12-19 16:59:00,54.4,22.8,30.20,SSW,210,0.0,0.0,29,0.00,,---,0.00,VWS V14.01,2013-12-19 21:59:00,
2013-12-19 17:04:00,53.6,22.1,30.20,SSW,210,0.0,0.0,29,0.00,,---,0.00,VWS V14.01,2013-12-19 22:04:00,
2013-12-19 17:09:00,53.1,25.5,30.20,SSW,210,0.0,0.0,34,0.00,,---,0.00,VWS V14.01,2013-12-19 22:09:00,
2013-12-19 17:14:00,52.5,25.7,30.20,SSW,210,0.0,0.0,35,0.00,,---,0.00,VWS V14.01,2013-12-19 22:14:00,
2013-12-19 17:19:00,52.0,25.9,30.20,SSW,210,0.0,0.0,36,0.00,,---,0.00,VWS V14.01,2013-12-19 22:19:00,
2013-12-19 17:24:00,51.6,26.8,30.20,SSW,210,0.0,0.0,38,0.00,,---,0.00,VWS V14.01,2013-12-19 22:24:00,
2013-12-19 17:29:00,51.1,27.0,30.20,SSW,210,0.0,0.0,39,0.00,,---,0.00,VWS V14.01,2013-12-19 22:29:00,
2013-12-19 17:34:00,50.8,27.4,30.20,SSW,210,0.0,0.0,40,0.00,,---,0.00,VWS V14.01,2013-12-19 22:34:00,
2013-12-19 17:39:00,50.5,28.3,30.20,SSW,210,0.0,0.0,42,0.00,,---,0.00,VWS V14.01,2013-12-19 22:39:00,
2013-12-19 17:44:00,50.1,29.0,30.20,SSW,210,0.0,0.0,44,0.00,,---,0.00,VWS V14.01,2013-12-19 22:44:00,
2013-12-19 17:49:00,49.8,28.8,30.20,SSW,210,0.0,0.0,44,0.00,,---,0.00,VWS V14.01,2013-12-19 22:49:00,
2013-12-19 17:54:00,49.8,28.8,30.20,SSE,161,0.0,0.0,44,0.00,,---,0.00,VWS V14.01,2013-12-19 22:54:00,
2013-12-19 17:59:00,49.6,27.5,30.20,South,178,0.0,0.0,42,0.00,,---,0.00,VWS V14.01,2013-12-19 22:59:00,
2013-12-19 18:04:00,49.8,26.5,30.20,South,176,0.0,0.0,40,0.00,,---,0.00,VWS V14.01,2013-12-19 23:04:00,
2013-12-19 18:09:00,49.9,26.0,30.20,SE,130,0.0,3.0,39,0.00,,---,0.00,VWS V14.01,2013-12-19 23:09:00,
2013-12-19 18:14:00,50.1,27.9,30.21,SW,223,0.0,0.0,42,0.00,,---,0.00,VWS V14.01,2013-12-19 23:14:00,
2013-12-19 18:19:00,50.4,26.4,30.21,SSE,155,0.0,1.0,39,0.00,,---,0.00,VWS V14.01,2013-12-19 23:19:00,
2013-12-19 18:24:00,50.7,26.0,30.21,SSW,205,0.0,0.0,38,0.00,,---,0.00,VWS V14.01,2013-12-19 23:24:00,
2013-12-19 18:29:00,50.8,26.1,30.21,South,175,0.0,0.0,38,0.00,,---,0.00,VWS V14.01,2013-12-19 23:29:00,
2013-12-19 18:34:00,50.8,26.1,30.21,South,175,0.0,0.0,38,0.00,,---,0.00,VWS V14.01,2013-12-19 23:34:00,
2013-12-19 18:39:00,50.8,26.1,30.21,South,175,0.0,0.0,38,0.00,,---,0.00,VWS V14.01,2013-12-19 23:39:00,
2013-12-19 18:44:00,51.0,25.0,30.21,South,175,0.0,0.0,36,0.00,,---,0.00,VWS V14.01,2013-12-19 23:44:00,
2013-12-19 18:49:00,51.1,26.4,30.21,South,175,0.0,0.0,38,0.00,,---,0.00,VWS V14.01,2013-12-19 23:49:00,
2013-12-19 18:54:00,51.0,26.3,30.21,SSE,157,0.0,2.0,38,0.00,,---,0.00,VWS V14.01,2013-12-19 23:54:00,
2013-12-19 18:59:00,51.0,27.5,30.21,SSE,160,0.0,0.0,40,0.00,,---,0.00,VWS V14.01,2013-12-19 23:59:00,
2013-12-19 19:04:00,51.0,26.9,30.21,SSE,160,0.0,0.0,39,0.00,,---,0.00,VWS V14.01,2013-12-20 00:04:00,
2013-12-19 19:09:00,50.8,26.8,30.21,SSE,162,0.0,0.0,39,0.00,,---,0.00,VWS V14.01,2013-12-20 00:09:00,
2013-12-19 19:14:00,50.5,28.9,30.21,SSE,162,0.0,0.0,43,0.00,,---,0.00,VWS V14.01,2013-12-20 00:14:00,
2013-12-19 19:19:00,50.5,28.9,30.21,SSE,162,0.0,0.0,43,0.00,,---,0.00,VWS V14.01,2013-12-20 00:19:00,
2013-12-19 19:24:00,50.2,28.6,30.21,SSE,162,0.0,0.0,43,0.00,,---,0.00,VWS V14.01,2013-12-20 00:24:00,
2013-12-19 19:29:00,50.1,28.5,30.21,SSE,162,0.0,0.0,43,0.00,,---,0.00,VWS V14.01,2013-12-20 00:29:00,
2013-12-19 19:34:00,50.1,28.5,30.21,SSE,162,0.0,0.0,43,0.00,,---,0.00,VWS V14.01,2013-12-20 00:34:00,
2013-12-19 19:39:00,50.1,28.5,30.21,South,189,0.0,0.0,43,0.00,,---,0.00,VWS V14.01,2013-12-20 00:39:00,
2013-12-19 19:44:00,50.1,28.5,30.21,SSW,192,0.0,0.0,43,0.00,,---,0.00,VWS V14.01,2013-12-20 00:44:00,
2013-12-19 19:49:00,50.1,28.5,30.21,East,82,0.0,0.0,43,0.00,,---,0.00,VWS V14.01,2013-12-20 00:49:00,
2013-12-19 19:54:00,50.1,28.5,30.21,South,176,0.0,0.0,43,0.00,,---,0.00,VWS V14.01,2013-12-20 00:54:00,
2013-12-19 19:59:00,50.1,28.5,30.21,South,176,0.0,0.0,43,0.00,,---,0.00,VWS V14.01,2013-12-20 00:59:00,
2013-12-19 20:04:00,49.4,27.9,30.21,South,176,0.0,0.0,43,0.00,,---,0.00,VWS V14.01,2013-12-20 01:04:00,
2013-12-19 20:09:00,49.2,26.5,30.21,South,176,0.0,0.0,41,0.00,,---,0.00,VWS V14.01,2013-12-20 01:09:00,
2013-12-19 20:14:00,49.2,25.9,30.21,South,176,0.0,0.0,40,0.00,,---,0.00,VWS V14.01,2013-12-20 01:14:00,
2013-12-19 20:19:00,49.4,27.9,30.21,South,176,0.0,0.0,43,0.00,,---,0.00,VWS V14.01,2013-12-20 01:19:00,
2013-12-19 20:24:00,49.5,25.6,30.21,SSW,205,0.0,0.0,39,0.00,,---,0.00,VWS V14.01,2013-12-20 01:24:00,
2013-12-19 20:29:00,49.8,26.5,30.21,SW,227,0.0,0.0,40,0.00,,---,0.00,VWS V14.01,2013-12-20 01:29:00,
2013-12-19 20:34:00,49.9,26.0,30.21,SW,226,0.0,0.0,39,0.00,,---,0.00,VWS V14.01,2013-12-20 01:34:00,
2013-12-19 20:39:00,50.1,25.5,30.21,South,188,0.0,0.0,38,0.00,,---,0.00,VWS V14.01,2013-12-20 01:39:00,
2013-12-19 20:44:00,50.4,25.8,30.20,SSW,193,0.0,3.0,38,0.00,,---,0.00,VWS V14.01,2013-12-20 01:44:00,
2013-12-19 20:49:00,50.7,26.0,30.20,South,191,0.0,0.0,38,0.00,,---,0.00,VWS V14.01,2013-12-20 01:49:00,
2013-12-19 20:54:00,50.7,26.0,30.20,SSW,200,0.0,0.0,38,0.00,,---,0.00,VWS V14.01,2013-12-20 01:54:00,
2013-12-19 20:59:00,50.8,26.1,30.20,South,171,0.0,0.0,38,0.00,,---,0.00,VWS V14.01,2013-12-20 01:59:00,
2013-12-19 21:04:00,51.0,25.7,30.20,ESE,121,0.0,2.0,37,0.00,,---,0.00,VWS V14.01,2013-12-20 02:04:00,
2013-12-19 21:09:00,51.0,26.3,30.20,South,185,0.0,0.0,38,0.00,,---,0.00,VWS V14.01,2013-12-20 02:09:00,
2013-12-19 21:14:00,51.0,25.7,30.20,SSW,196,0.0,0.0,37,0.00,,---,0.00,VWS V14.01,2013-12-20 02:14:00,
2013-12-19 21:19:00,51.0,26.9,30.20,SW,229,0.0,0.0,39,0.00,,---,0.00,VWS V14.01,2013-12-20 02:19:00,
2013-12-19 21:24:00,50.7,26.7,30.20,SW,229,0.0,0.0,39,0.00,,---,0.00,VWS V14.01,2013-12-20 02:24:00,
2013-12-19 21:29:00,50.5,25.9,30.20,SSW,208,0.0,0.0,38,0.00,,---,0.00,VWS V14.01,2013-12-20 02:29:00,
2013-12-19 21:34:00,50.4,26.4,30.20,SSE,164,0.0,0.0,39,0.00,,---,0.00,VWS V14.01,2013-12-20 02:34:00,
2013-12-19 21:39:00,50.2,26.2,30.20,SSW,192,0.0,0.0,39,0.00,,---,0.00,VWS V14.01,2013-12-20 02:39:00,
2013-12-19 21:44:00,50.1,25.5,30.20,SSW,196,0.0,0.0,38,0.00,,---,0.00,VWS V14.01,2013-12-20 02:44:00,
2013-12-19 21:49:00,50.1,26.1,30.20,NW,315,0.0,0.0,39,0.00,,---,0.00,VWS V14.01,2013-12-20 02:49:00,
2013-12-19 21:54:00,49.8,26.5,30.20,WSW,243,0.0,0.0,40,0.00,,---,0.00,VWS V14.01,2013-12-20 02:54:00,
2013-12-19 21:59:00,49.8,25.9,30.20,South,191,0.0,1.0,39,0.00,,---,0.00,VWS V14.01,2013-12-20 02:59:00,
2013-12-19 22:04:00,49.9,25.3,30.20,WSW,240,0.0,0.0,38,0.00,,---,0.00,VWS V14.01,2013-12-20 03:04:00,
2013-12-19 22:09:00,50.2,25.6,30.20,WSW,237,0.0,0.0,38,0.00,,---,0.00,VWS V14.01,2013-12-20 03:09:00,
2013-12-19 22:14:00,50.1,26.1,30.19,South,185,0.0,0.0,39,0.00,,---,0.00,VWS V14.01,2013-12-20 03:14:00,
2013-12-19 22:19:00,50.1,26.1,30.19,SSW,213,0.0,0.0,39,0.00,,---,0.00,VWS V14.01,2013-12-20 03:19:00,
2013-12-19 22:24:00,50.1,26.7,30.19,SW,224,0.0,1.0,40,0.00,,---,0.00,VWS V14.01,2013-12-20 03:24:00,
2013-12-19 22:29:00,50.1,26.1,30.19,SW,217,0.0,0.0,39,0.00,,---,0.00,VWS V14.01,2013-12-20 03:29:00,
2013-12-19 22:34:00,50.2,25.6,30.19,SW,215,0.0,2.0,38,0.00,,---,0.00,VWS V14.01,2013-12-20 03:34:00,
2013-12-19 22:39:00,50.5,25.9,30.19,SW,216,0.0,0.0,38,0.00,,---,0.00,VWS V14.01,2013-12-20 03:39:00,
2013-12-19 22:44:00,50.7,26.0,30.19,WSW,244,0.0,2.0,38,0.00,,---,0.00,VWS V14.01,2013-12-20 03:44:00,
2013-12-19 22:49:00,50.4,25.8,30.19,SW,229,0.0,3.0,38,0.00,,---,0.00,VWS V14.01,2013-12-20 03:49:00,
2013-12-19 22:54:00,50.4,26.4,30.19,South,174,0.0,3.0,39,0.00,,---,0.00,VWS V14.01,2013-12-20 03:54:00,
2013-12-19 22:59:00,50.2,26.8,30.19,SW,223,0.0,0.0,40,0.00,,---,0.00,VWS V14.01,2013-12-20 03:59:00,
2013-12-19 23:04:00,50.2,26.2,30.19,SSW,196,0.0,1.0,39,0.00,,---,0.00,VWS V14.01,2013-12-20 04:04:00,
2013-12-19 23:09:00,50.2,26.8,30.19,SSE,168,0.0,1.0,40,0.00,,---,0.00,VWS V14.01,2013-12-20 04:09:00,
2013-12-19 23:14:00,50.1,26.7,30.18,SSW,209,0.0,0.0,40,0.00,,---,0.00,VWS V14.01,2013-12-20 04:14:00,
2013-12-19 23:19:00,50.1,27.3,30.18,SW,222,0.0,1.0,41,0.00,,---,0.00,VWS V14.01,2013-12-20 04:19:00,
2013-12-19 23:24:00,49.9,27.1,30.18,SSE,158,0.0,0.0,41,0.00,,---,0.00,VWS V14.01,2013-12-20 04:24:00,
2013-12-19 23:29:00,49.8,27.1,30.18,South,188,0.0,1.0,41,0.00,,---,0.00,VWS V14.01,2013-12-20 04:29:00,
2013-12-19 23:34:00,49.6,27.5,30.18,South,174,0.0,0.0,42,0.00,,---,0.00,VWS V14.01,2013-12-20 04:34:00,
2013-12-19 23:39:00,49.6,27.5,30.18,SSW,205,0.0,0.0,42,0.00,,---,0.00,VWS V14.01,2013-12-20 04:39:00,
2013-12-19 23:44:00,49.5,28.0,30.17,South,176,0.0,2.0,43,0.00,,---,0.00,VWS V14.01,2013-12-20 04:44:00,
2013-12-19 23:49:00,49.5,28.0,30.17,South,191,0.0,0.0,43,0.00,,---,0.00,VWS V14.01,2013-12-20 04:49:00,
2013-12-19 23:54:00,49.5,28.0,30.17,SSW,210,0.0,0.0,43,0.00,,---,0.00,VWS V14.01,2013-12-20 04:54:00,
2013-12-19 23:59:00,49.5,28.5,30.18,SSW,202,0.0,0.0,44,0.00,,---,0.00,VWS V14.01,2013-12-20 04:59:00,